{"data":{"norad_id":45415,"intl_designator":"2020-019BH","name":"STARLINK-1316","alt_names":[],"object_type":"PAYLOAD","status":"ACTIVE","operator":null,"country":"US","launch_date":"2020-03-18","launch_site_code":"AFETR","launch_vehicle":null,"mission":null,"orbit_class":"UNKNOWN","rcs_meters":null,"size_class":null,"mass_kg":null,"dimensions":null,"purposes":["comms"],"wikipedia_slug":null,"has_3d_model":false,"image_url":null,"decayed_at":null,"tle_current":{"epoch":"2026-05-25T02:41:31.627104Z","epoch_age_seconds":59388,"freshness":"FRESH","line1":"1 45415U 20019BH  26145.11217161  .00038875  00000+0  10598-2 0  9994","line2":"2 45415  53.1551 132.4009 0006640  28.7368 331.4001 15.37094529341724","mean_motion":15.37094529,"eccentricity":0.000664,"inclination_deg":53.1551,"raan_deg":132.4009,"arg_perigee_deg":28.7368,"mean_anomaly_deg":331.4001,"bstar":0.0010598,"rev_number":34172,"period_min":93.683242821561,"perigee_km":450.16922594331,"apogee_km":459.24324175786,"semimajor_km":6832.8432338506,"source":"CELESTRAK","updated_at":"2026-05-25T13:38:16.420034Z"}}}